Retour au catalogue

ONEWEB-0329

ActifCommunicationsPO
NORAD 49107·PAYLOAD·🇬🇧 United Kingdom

Lancé Aug 21, 2021 depuis Baikonur Cosmodrome

Loading…

Prochains Passages (prochaines 24 heures)

TLE

FraisSource: CelesTrak SupGP

Époque: Sep 15, 2026, 00:30 UTC

1 49107C 21075AJ  26258.02135833  .00001761  00000+0  45404-2 0  2585
2 49107  87.9203 348.0289 0001815 107.0358 286.3895 13.17647817    12

Suivez ONEWEB-0329 en temps réel avec AllMySat

Download on the App Store